Address 0x98b58a838b13b2439e93093e6d7dba1e2fbe9463 11

Txn Hash Method
Block
From
To
Value [Txn Fee]
0x8ae4d6479d70285f5cbe6f4cf3ebcb79c4a2fde48a25af6d77cf7db50d910a9a0x6549920d139713612022-09-26 3:24:281 day 23 hrs ago0x98b58a838b13b2439e93093e6d7dba1e2fbe9463OUT0x2e1d0c56c6913fd6135f887080f7a14123a142a80 AVAX0.064629100
0xfa2741ff24e2087c78e8e44d892722245b6fd09c665cec398dcf1d3cdd06fe2c0xbef1e500139697942022-09-26 2:56:191 day 23 hrs ago0x98b58a838b13b2439e93093e6d7dba1e2fbe9463OUT0x2e1d0c56c6913fd6135f887080f7a14123a142a80 AVAX0.026724100
0x121db89d92eba0778b73b122977cf4c0f822544e951ddbb14e728f3cbf91625a0x6549920d139689912022-09-26 2:42:132 days 2 mins ago0x98b58a838b13b2439e93093e6d7dba1e2fbe9463OUT0x2e1d0c56c6913fd6135f887080f7a14123a142a80 AVAX0.0638322100
0x8fe0da3ccf167dc7d2021df038299b2002d055e663e6160130e11e24ef32fc350xbef1e500139676452022-09-26 2:18:392 days 26 mins ago0x98b58a838b13b2439e93093e6d7dba1e2fbe9463OUT0x2e1d0c56c6913fd6135f887080f7a14123a142a80 AVAX0.026724100
0x718478591a52627504be5f16f933a544033d2e9f047ebdcedaac00ecdd3a46500x6549920d139665052022-09-26 1:58:502 days 45 mins ago0x98b58a838b13b2439e93093e6d7dba1e2fbe9463OUT0x2e1d0c56c6913fd6135f887080f7a14123a142a80 AVAX0.0649219100
0x67770bf07015881b6ff1797b928f64596cd0609fb7561dd82ad058f1b84a08040xbef1e500139654492022-09-26 1:40:322 days 1 hr ago0x98b58a838b13b2439e93093e6d7dba1e2fbe9463OUT0x2e1d0c56c6913fd6135f887080f7a14123a142a80 AVAX0.028434100
0x063929465fbd6c61b1610287541b8a8aaf6bb4a78e768c0dffc31ad22f8ff73a0x6549920d139640392022-09-26 1:15:462 days 1 hr ago0x98b58a838b13b2439e93093e6d7dba1e2fbe9463OUT0x2e1d0c56c6913fd6135f887080f7a14123a142a80 AVAX0.066339100
0xd80e10a7b62ffc24c03cdf4a38c9c39de59205c64890749d557168dd81314cb80x6549920d139617812022-09-26 0:33:172 days 2 hrs ago0x98b58a838b13b2439e93093e6d7dba1e2fbe9463OUT0x2e1d0c56c6913fd6135f887080f7a14123a142a80 AVAX0.0655422100
0xf87fa6724643620c50c2c52d45fbdf863b551b011f356aaaab16e0469529683b0x6549920d139595062022-09-25 23:51:542 days 2 hrs ago0x98b58a838b13b2439e93093e6d7dba1e2fbe9463OUT0x2e1d0c56c6913fd6135f887080f7a14123a142a80 AVAX0.0649219100
0xa289ebc17dd4d5b0a278187ba0df995e8837a139ccb1d80fd7cd323c3957ca410x6549920d139572062022-09-25 23:08:492 days 3 hrs ago0x98b58a838b13b2439e93093e6d7dba1e2fbe9463OUT0x2e1d0c56c6913fd6135f887080f7a14123a142a80 AVAX0.068049100
0xbceda156b6d0702cb4a4717fc0e8a4d2ac97c62e4ded68ae485a0d03ccfc7bfc0x6549920d139548992022-09-25 22:25:472 days 4 hrs ago0x98b58a838b13b2439e93093e6d7dba1e2fbe9463OUT0x2e1d0c56c6913fd6135f887080f7a14123a142a80 AVAX0.0655422100
0xfb600e37946fc2873bf284f59c8a9a73cfd5228158903536f3f342fd2d21ca8f0x6549920d139525792022-09-25 21:42:562 days 5 hrs ago0x98b58a838b13b2439e93093e6d7dba1e2fbe9463OUT0x2e1d0c56c6913fd6135f887080f7a14123a142a80 AVAX0.0649219100
0xce5d940eaca10493f7530168f0c46a0583021b5a3787fb7aa85ab17488723a970x6549920d139502602022-09-25 20:59:322 days 5 hrs ago0x98b58a838b13b2439e93093e6d7dba1e2fbe9463OUT0x2e1d0c56c6913fd6135f887080f7a14123a142a80 AVAX0.068049100
0x6febaa80ce7b39849200f3a6c303c7bb1462126cb6b455c54a59b53e068e07970x6549920d139478802022-09-25 20:14:462 days 6 hrs ago0x98b58a838b13b2439e93093e6d7dba1e2fbe9463OUT0x2e1d0c56c6913fd6135f887080f7a14123a142a80 AVAX0.0655422100
0xf70b27279a8d1f9acf718da9448ff595473783cb6641d4d46c777e62e1fc0e20Harvest139463982022-09-25 19:47:012 days 6 hrs ago0x98b58a838b13b2439e93093e6d7dba1e2fbe9463OUT0x951accccfdf619d3cd8cfe0e4823d8e80354eb410 AVAX0.00647100
0x7d1268e1070461d3cb854bfc34c723970392d4a35f768e1dd46a9a4e731617430x6549920d139455352022-09-25 19:31:052 days 7 hrs ago0x98b58a838b13b2439e93093e6d7dba1e2fbe9463OUT0x2e1d0c56c6913fd6135f887080f7a14123a142a80 AVAX0.0649219100
0xccc000f1cf733592891b1cbe14f0fc0a99bcf4babf2f4cfc4a1ca372dc76a23bHarvest139442082022-09-25 19:06:232 days 7 hrs ago0x98b58a838b13b2439e93093e6d7dba1e2fbe9463OUT0x951accccfdf619d3cd8cfe0e4823d8e80354eb410 AVAX0.00647100
0xbcbced508fe52cc2d1518f82a1ea9da0c4aff99c882e3e52e75d4912a0a8f7e00x6549920d139431172022-09-25 18:44:582 days 7 hrs ago0x98b58a838b13b2439e93093e6d7dba1e2fbe9463OUT0x2e1d0c56c6913fd6135f887080f7a14123a142a80 AVAX0.068049100
0xe8be632de2df3e0d0858c2124a62a627ebfcb83d4141af5f823654715b9e4ec6Harvest139419992022-09-25 18:23:582 days 8 hrs ago0x98b58a838b13b2439e93093e6d7dba1e2fbe9463OUT0x951accccfdf619d3cd8cfe0e4823d8e80354eb410 AVAX0.00647100
0x388bb09a0c58b647ce3a65997e3b9b9e021b529bfec65f0f893a3b508261064a0x6549920d139407322022-09-25 17:58:502 days 8 hrs ago0x98b58a838b13b2439e93093e6d7dba1e2fbe9463OUT0x2e1d0c56c6913fd6135f887080f7a14123a142a80 AVAX0.0672522100
0x823ba95cefed71a0e540bd4313e593576c708879c8c289cf169246bff6357dcfHarvest139397992022-09-25 17:40:212 days 9 hrs ago0x98b58a838b13b2439e93093e6d7dba1e2fbe9463OUT0x951accccfdf619d3cd8cfe0e4823d8e80354eb410 AVAX0.00647100
0x079ee1760eed0c29979791cbc873814c2b232bba907de07e0ca8246e606d29710x6549920d139382812022-09-25 17:10:552 days 9 hrs ago0x98b58a838b13b2439e93093e6d7dba1e2fbe9463OUT0x2e1d0c56c6913fd6135f887080f7a14123a142a80 AVAX0.0666319100
0xa03f4e2096e933657f7efc536083d6fa4580d25827c9f87172de1edddbd031b3Harvest139374912022-09-25 16:55:102 days 9 hrs ago0x98b58a838b13b2439e93093e6d7dba1e2fbe9463OUT0x951accccfdf619d3cd8cfe0e4823d8e80354eb410 AVAX0.00647100
0xd6dc3d4368cd72e1da80f7f71df35da29fe6cdeafbe9eaf208849a785ab648f90x4ea4c6b3139363422022-09-25 16:24:532 days 10 hrs ago0x98b58a838b13b2439e93093e6d7dba1e2fbe9463OUT0x2e1d0c56c6913fd6135f887080f7a14123a142a80 AVAX0.0212157100
0x48620cb99afbbf19817e3a15e4128e6d49c0aafe0b6ae168bdc97d6d7233c0990xab07211e139358152022-09-25 16:07:202 days 10 hrs ago0x98b58a838b13b2439e93093e6d7dba1e2fbe9463OUT0x2e1d0c56c6913fd6135f887080f7a14123a142a80 AVAX0.0210672100
[ Download CSV Export 
Parent Txn Hash Block From To Value
Loading

Contract Name:
0

Compiler Version
0

Optimization Enabled:
0

Other Settings:
-NA-
Block Transaction Gas Used Reward
Age Block Fee Address BC Fee Address Voting Power Jailed Incoming
Block Uncle Number Difficulty Gas Used Reward
Loading